This demonstration page uses our WeatherBlox Daily Observations layout. Learn more.

39.92423, -83.80882

Hourly Observations for September 5, 2016

Temp ( °F °C ) Dew Point ( °F °C ) Humidity (%) Winds ( mph kmh ) Pressure ( in mb ) Visibility ( mi km ) Precip ( " mm )
12:56 am 00:56 Clear 60 15.6 57 13.9 90 90 Calm 30.21 1023 10 16.0934 0 0
1:56 am 01:56 Clear 60 15.6 57 13.9 90 90 SE 5 7 30.21 1023 10 16.0934 0 0
2:56 am 02:56 Clear 59 15 56 13.3 90 90 SE 5 7 30.21 1023 10 16.0934 0 0
3:56 am 03:56 Clear 56 13.3 54 12.2 93 93 SE 3 6 30.21 1023 10 16.0934 0 0
4:56 am 04:56 Clear 56 13.3 55 12.8 97 97 Calm 30.21 1023 10 16.0934 0 0
5:56 am 05:56 Clear 55 12.8 54 12.2 96 96 E 3 6 30.23 1024 10 16.0934 0 0
6:56 am 06:56 Clear 54 12.2 53 11.7 97 97 SE 3 6 30.24 1024 10 16.0934 0 0
8:56 am 08:56 Sunny 66 18.9 61 16.1 84 84 Calm 30.26 1025 10 16.0934 0 0
9:56 am 09:56 undefined 72 22.2 64 17.8 76 76 SSE 3 6 30.25 1025 10 16.0934 0 0
10:56 am 10:56 Sunny 77 25 64 17.8 64 64 VRB 3 6 30.26 1025 10 16.0934 0 0
11:56 am 11:56 Sunny 80 26.7 66 18.9 62 62 VRB 3 6 30.24 1024 10 16.0934 0 0
12:56 pm 12:56 Mostly Sunny 82 27.8 65 18.3 56 56 SW 7 11 30.24 1024 10 16.0934 0 0
1:56 pm 13:56 Sunny 83 28.3 64 17.8 53 53 SW 7 11 30.22 1023 10 16.0934 0 0
2:56 pm 14:56 Sunny 84 28.9 66 18.9 55 55 SW 8 13 30.21 1023 10 16.0934 0 0
3:56 pm 15:56 Sunny 84 28.9 67 19.4 57 57 WSW 5 7 30.18 1022 10 16.0934 0 0
4:56 pm 16:56 Sunny 84 28.9 67 19.4 57 57 SE 6 9 30.17 1022 10 16.0934 0 0
5:56 pm 17:56 Sunny 83 28.3 66 18.9 57 57 S 7 11 30.16 1021 10 16.0934 0 0
6:56 pm 18:56 Sunny 81 27.2 67 19.4 62 62 S 5 7 30.16 1021 10 16.0934 0 0
7:56 pm 19:56 Sunny 78 25.6 66 18.9 67 67 SSE 3 6 30.15 1021 10 16.0934 0 0
8:56 pm 20:56 Clear 74 23.3 65 18.3 74 74 S 7 11 30.16 1021 10 16.0934 0 0
9:56 pm 21:56 Clear 74 23.3 65 18.3 74 74 S 7 11 30.17 1022 10 16.0934 0 0
10:56 pm 22:56 Clear 72 22.2 64 17.8 76 76 SSE 6 9 30.18 1022 10 16.0934 0 0
11:56 pm 23:56 Clear 72 22.2 64 17.8 76 76 S 6 9 30.18 1022 10 16.0934 0 0

Powered by AerisWeather